SCP
1 1 1 1 1 1 1 1 1 1 0 0 0 1 1 1 1 1 1 1 1 1 0 1 1 2 2 2 2 3 2 2 3 2 2 2 2 2 1 1 1 2 2
2 2 2 1 1 1 1 1 1 1 0 0 0 0 1 1 1 1 1 1 1 1 1 1 1 1 2 2 3 3 2 3 3 2 2 2 2 2 2 1 1 2 2
2 2 2 2 1 1 1 1 1 1 1 0 0 0 0 1 1 1 1 0 0 1 1 1 1 1 1 2 2 3 3 3 3 2 2 2 2 2 2 2 2 1 1
2 2 2 1 1 1 1 1 1 1 1 0 0 0 0 0 0 0 0 0 0 1 1 1 1 1 1 1 2 2 3 3 3 2 2 2 2 2 2 2 2 2 1
2 2 2 1 1 1 1 1 1 1 1 1 1 0 0 0 0 0 0 0 1 1 1 2 2 2 2 1 1 2 2 3 3 3 2 2 2 2 2 2 2 1 1
1 2 1 1 1 1 1 1 1 1 1 1 1 1 0 0 0 0 1 1 1 1 2 2 2 2 2 2 1 1 2 3 4 3 3 2 2 2 2 2 1 1 1
1 1 1 1 1 1 1 1 1 1 1 1 1 1 1 0 0 1 1 1 1 2 2 2 2 2 2 2 1 1 1 2 4 4 4 3 3 2 2 2 1 1 1
1 1 2 2 2 2 1 1 1 2 2 2 1 1 1 1 0 1 1 2 2 2 2 2 2 2 2 2 1 1 1 2 3 4 4 4 4 3 3 2 2 2 2
2 2 2 2 2 2 2 1 2 2 2 1 1 1 1 1 1 1 1 2 3 3 3 3 3 2 2 2 2 2 1 2 2 3 4 4 4 4 3 3 3 3 2
3 3 3 2 2 2 1 1 1 1 1 1 1 1 1 1 1 1 1 2 3 3 3 3 3 2 2 2 2 2 2 2 2 3 3 4 4 3 3 3 3 3 3
2 2 2 1 1 1 1 1 1 1 1 1 1 1 1 1 1 1 1 2 2 2 3 3 4 3 2 2 2 2 2 2 2 2 3 3 3 3 3 3 3 4 4
1 1 1 1 1 1 1 0 1 1 1 1 2 2 2 2 2 2 2 2 1 1 2 2 3 3 2 1 2 2 3 3 2 2 2 3 3 3 2 2 2 3 4
1 1 1 1 1 1 1 1 1 1 1 2 2 3 3 3 3 3 3 2 2 1 1 1 2 2 1 1 1 2 2 2 2 2 2 2 2 2 1 1 2 2 3
1 1 1 1 1 1 1 1 1 1 2 2 3 3 4 4 4 4 3 2 2 1 1 1 1 1 1 1 1 1 1 2 1 1 1 1 1 1 1 1 1 2 2
1 2 2 2 2 2 2 2 1 2 2 3 4 4 5 5 4 4 3 2 2 1 1 1 1 1 1 1 1 1 1 1 1 1 1 1 1 1 0 1 1 2 2
2 2 2 2 2 2 2 2 2 2 2 3 4 4 4 4 4 3 2 2 2 1 1 1 1 1 1 1 1 1 1 1 1 1 1 1 1 0 0 0 1 1 1
1 1 1 1 1 1 2 2 2 2 3 3 3 3 3 3 3 2 2 1 1 1 1 1 1 1 1 1 1 1 1 1 1 1 1 0 0 0 0 0 0 0 0
1 1 1 1 1 1 2 2 2 3 3 3 3 3 3 2 2 1 1 1 1 1 1 1 1 1 1 1 1 1 1 1 1 1 1 0 0 0 0 0 0 0 0
1 1 1 1 1 2 2 2 3 3 3 3 3 2 2 2 2 2 1 1 1 1 1 1 1 1 1 1 1 1 1 1 1 1 1 1 0 0 0 0 0 0 0
2 2 2 2 2 2 2 3 3 3 3 3 3 2 2 2 2 2 1 1 1 1 1 1 1 1 1 1 1 1 1 1 1 1 1 1 1 1 0 0 0 0 0
2 2 2 2 2 2 2 2 2 3 3 3 3 2 2 1 1 1 1 1 1 1 1 1 1 1 1 1 1 1 1 1 1 1 1 1 1 1 1 0 0 0 0
2 2 2 2 2 2 1 1 2 2 3 3 2 2 1 1 1 1 1 1 1 1 1 1 1 1 1 1 1 1 1 2 2 2 1 1 1 1 1 1 0 0 0
1 1 1 1 1 1 1 1 1 2 2 2 2 1 1 1 1 1 1 1 1 1 1 1 1 1 1 1 1 1 1 1 2 2 2 2 1 1 1 1 1 1 0
1 1 1 1 1 1 1 0 1 1 1 1 1 1 1 1 1 1 1 1 1 1 1 1 1 1 1 1 1 1 1 1 1 2 2 2 2 1 1 1 1 1 0
1 1 0 0 0 0 0 0 0 1 1 1 1 1 1 1 1 1 1 1 1 1 1 0 0 0 0 0 1 1 1 1 1 1 2 2 2 1 1 1 1 1 1
0 0 0 0 0 0 0 0 0 1 1 1 1 0 0 0 0 0 1 1 1 1 1 0 0 0 0 0 0 1 1 1 1 1 1 2 2 1 1 1 1 1 1
Wind_Speed
1 1 1 1 1 1 1 1 1 1 1 1 1 1 1 1 1 1 1 3 5 6 7 7 7 7 7 8 8 9 10 10 10 9 9 9 8 9 9 10 10 10 10
1 1 1 1 1 1 1 1 1 1 1 1 1 1 1 1 1 1 1 1 3 4 5 6 7 7 7 7 8 8 9 9 9 9 9 9 8 8 8 9 10 10 10
1 1 1 1 1 1 1 1 2 2 1 1 1 1 1 1 0 1 1 1 1 2 3 5 6 7 7 7 8 8 9 9 9 9 10 9 9 8 7 7 9 10 10
2 1 1 1 1 1 1 1 1 2 2 1 1 1 1 1 0 0 0 0 0 1 2 3 4 6 7 7 8 9 9 9 9 9 10 9 9 8 7 7 7 8 9
2 2 1 1 1 1 1 1 2 1 1 1 1 1 1 1 0 0 0 0 0 0 1 1 2 2 4 6 8 9 9 9 9 10 10 9 9 8 7 7 7 7 8
2 2 1 1 1 1 2 2 2 2 1 1 1 2 2 1 1 1 0 0 0 0 1 0 0 1 2 2 3 5 7 8 8 9 9 8 7 7 6 6 6 6 7
2 1 1 1 1 1 1 1 1 2 2 1 2 2 2 2 2 1 1 1 1 0 0 0 0 1 1 2 2 1 3 5 6 6 7 7 7 7 7 7 7 7 7
1 1 1 1 1 1 1 1 1 1 1 2 1 1 2 3 3 2 2 1 1 1 0 0 1 1 1 1 1 1 1 3 3 5 7 7 7 7 8 8 7 7 6
2 1 1 1 1 1 0 0 1 1 1 1 1 1 1 1 1 2 2 2 2 1 1 0 0 1 1 1 1 1 1 1 3 4 5 7 7 7 8 8 8 7 7
2 2 1 1 1 1 1 0 1 1 1 1 1 1 0 1 1 1 2 2 2 1 1 1 1 1 1 1 1 1 1 1 2 3 4 5 5 5 6 7 7 7 6
2 2 2 1 1 1 1 1 1 1 1 1 1 0 1 1 1 1 1 2 2 2 1 1 1 1 1 1 1 1 1 1 2 2 3 3 4 5 5 6 6 6 6
2 3 2 2 1 1 0 0 1 1 1 1 1 1 1 1 1 1 1 1 1 2 2 1 1 1 1 1 1 1 1 1 1 1 1 2 2 3 4 6 6 6 6
1 2 2 1 1 1 0 1 1 1 1 1 1 0 1 1 1 1 1 1 1 1 2 1 1 1 1 0 1 1 1 1 0 0 0 0 1 2 4 5 5 5 6
1 1 1 1 2 1 1 1 1 1 1 1 0 0 1 0 1 1 1 2 0 1 1 2 1 1 1 0 1 2 2 1 1 1 1 1 2 3 3 3 3 4 4
1 1 2 2 2 2 1 1 1 0 1 1 0 0 0 0 0 1 1 2 2 1 2 2 1 1 1 1 1 1 1 1 1 1 1 1 2 3 3 2 2 3 3
1 1 1 1 2 2 1 1 1 0 1 0 0 1 0 0 0 0 1 1 1 2 1 1 2 2 2 2 2 1 2 2 3 3 2 2 2 2 2 2 2 3 3
1 1 1 1 1 2 1 1 1 0 0 1 1 0 0 0 0 0 0 0 1 1 2 2 1 2 2 2 2 2 1 2 2 3 3 3 2 2 2 2 3 3 4
1 1 1 1 1 1 1 1 1 1 1 1 1 0 1 0 0 0 0 0 0 1 2 2 2 2 2 2 2 2 2 1 2 2 3 2 2 2 2 2 3 3 4
1 1 1 1 1 1 1 1 1 1 1 2 1 1 1 0 0 0 0 0 0 0 1 1 2 1 2 2 2 2 2 2 2 1 1 1 1 2 2 2 3 3 3
1 1 1 1 1 1 1 1 1 2 2 2 2 1 1 1 1 1 1 1 0 0 0 1 1 1 1 2 1 2 2 2 2 2 2 1 1 2 2 2 3 3 3
2 2 2 2 2 2 2 2 1 1 2 2 2 2 1 0 0 1 1 1 1 1 0 1 1 1 1 1 1 1 2 2 2 1 2 2 1 1 2 2 2 3 3
2 2 2 2 3 3 5 4 1 1 1 1 2 2 2 2 2 1 1 2 2 2 2 1 1 2 3 2 2 1 1 2 2 1 1 2 1 2 2 1 1 2 3
2 2 3 3 3 4 6 5 5 2 1 1 2 2 2 3 3 2 2 1 1 1 3 3 3 3 3 3 2 2 2 2 3 2 1 2 1 2 2 2 1 1 2
2 2 2 3 3 4 7 6 5 3 2 2 2 2 2 3 3 3 2 2 2 2 2 2 3 4 4 3 3 3 2 2 3 2 1 2 2 2 2 1 2 1 1
2 2 2 2 3 4 7 6 5 2 3 3 3 3 3 3 5 5 2 2 3 3 2 2 2 2 3 3 3 1 1 1 2 2 1 1 1 1 1 1 1 1 1
1 2 2 2 2 3 6 6 4 2 3 3 3 4 5 5 5 4 2 2 3 4 3 3 3 3 2 2 1 3 3 2 2 2 1 1 1 1 1 1 1 1 1
Wind_Direction
92 69 50 32 8 18 22 24 40 61 71 93 135 137 136 157 168 175 194 204 209 208 211 211 212 213 212 209 203 205 207 209 207 204 204 209 212 214 215 213 206 204 202
103 102 76 36 11 15 39 41 45 66 64 78 79 121 148 152 147 204 214 218 219 214 216 218 219 220 217 213 212 212 215 215 210 208 209 212 216 219 222 217 209 203 203
99 97 88 48 11 22 51 55 46 59 63 61 45 53 102 122 150 232 217 198 231 232 235 235 231 230 229 226 221 222 220 217 214 213 213 214 217 221 221 214 208 206 204
94 93 81 44 25 51 63 65 51 63 58 51 31 25 46 57 6 273 179 180 204 217 246 253 251 245 241 237 230 226 224 221 220 218 215 215 217 220 218 214 215 210 208
72 87 79 41 40 56 54 65 60 78 69 38 48 41 44 54 17 27 94 104 198 206 216 256 266 273 261 253 245 236 230 228 225 222 219 220 221 222 218 216 218 219 217
58 71 65 33 47 58 49 59 68 59 79 52 55 45 35 22 34 34 352 31 89 216 213 222 311 299 289 292 277 249 239 232 228 226 220 217 216 216 214 212 215 219 222
59 79 61 44 50 62 55 53 81 70 57 60 67 39 21 25 25 10 359 18 2 324 126 189 263 280 291 294 293 275 231 217 218 219 215 213 215 214 212 213 217 221 226
30 79 93 73 56 62 50 54 76 78 47 49 82 71 8 2 11 14 15 42 19 31 13 268 246 255 272 276 321 341 216 211 215 218 212 209 212 214 216 217 217 219 223
19 30 54 74 77 103 88 56 85 110 82 36 50 115 128 248 318 349 10 20 19 34 6 1 274 267 265 270 276 287 260 234 225 226 220 210 208 217 221 219 217 219 222
19 32 48 66 69 73 75 24 86 104 118 100 34 36 103 162 174 326 345 359 7 21 355 339 329 318 300 280 276 281 252 257 245 243 233 212 201 212 217 218 215 215 221
15 20 29 45 55 52 30 39 77 96 114 135 132 113 90 65 116 168 291 331 352 354 341 322 331 351 333 296 269 273 282 263 257 257 247 227 222 220 218 221 217 215 217
1 9 20 26 34 37 15 30 90 112 115 123 119 122 148 163 181 170 212 285 320 326 333 344 342 331 328 316 309 351 348 319 270 246 252 234 226 233 228 227 228 222 221
344 340 356 4 4 353 12 70 81 75 106 120 137 144 165 187 171 159 166 216 295 310 326 334 295 290 315 346 311 323 314 323 331 272 272 247 238 243 243 238 238 233 232
293 325 350 359 6 18 35 64 71 57 85 107 95 134 159 150 134 161 167 161 187 338 339 297 295 294 314 304 322 302 297 301 247 211 221 244 254 251 243 240 243 246 241
320 15 17 9 10 21 27 60 72 54 80 83 249 150 123 69 144 185 179 177 168 215 287 293 302 321 319 303 317 282 271 295 282 256 239 244 258 262 246 228 235 249 246
355 20 14 359 2 10 25 65 65 34 91 242 199 103 60 293 97 140 174 178 177 182 238 289 278 299 311 314 329 293 276 286 274 252 245 250 258 270 261 243 241 247 247
10 12 344 352 1 9 16 49 11 17 20 324 339 92 278 242 126 51 99 137 154 161 213 283 296 310 310 316 327 325 301 276 277 260 252 245 250 265 269 263 257 260 255
0 347 346 0 354 9 12 11 323 337 322 305 300 293 291 339 61 25 98 165 186 197 201 260 300 310 297 305 319 324 327 306 277 279 265 248 235 239 250 264 263 272 264
13 2 19 10 347 346 349 325 300 305 295 280 273 248 257 165 239 235 201 213 249 177 193 227 278 298 303 317 330 330 334 325 311 304 280 264 249 245 247 250 264 268 262
54 24 10 350 326 325 332 322 318 308 303 298 299 284 254 200 216 199 193 216 208 158 188 238 274 298 294 305 309 315 326 332 322 325 329 308 297 296 288 273 262 262 258
49 33 24 10 357 355 357 349 323 325 325 337 344 328 306 270 186 190 195 203 178 186 212 250 273 291 291 290 295 297 306 311 305 311 317 311 296 290 294 279 262 258 253
44 44 30 22 19 16 14 18 16 339 347 355 339 330 327 327 315 302 248 211 186 191 206 217 247 257 271 273 294 293 300 312 306 324 309 300 286 280 286 279 276 256 250
52 47 31 29 22 10 18 22 30 36 22 2 346 337 338 347 350 331 318 309 277 235 210 211 231 250 254 244 233 263 268 275 272 289 282 292 291 285 288 292 279 261 248
56 52 35 25 20 11 17 19 29 37 28 10 359 350 341 339 348 351 329 323 306 293 263 237 235 249 251 244 225 229 246 265 272 265 238 270 294 291 305 304 303 279 262
48 42 44 34 26 4 12 17 28 26 25 10 2 2 359 348 349 359 353 325 318 311 311 315 281 278 277 254 219 206 219 234 281 286 220 245 279 295 294 292 310 319 290
75 59 46 33 23 5 8 23 32 37 23 2 356 357 2 355 345 349 331 312 309 309 325 333 337 334 325 301 235 214 214 220 248 265 230 222 260 285 291 281 313 330 333